Location: Unspecified
(0.0000°N, 0.0000°E)
Time: 19:27:43
(UTC+00:00)

Diademe D-1D - Visible Passes

Search period start: 14 May 2026 00:00
Search period end: 24 May 2026 00:00
Orbit: 578 x 1626 km, 39.4° (Epoch: 14 May)

Date Brightness Start Highest point End Pass type
(mag) Time Alt. Az. Time Alt. Az. Time Alt. Az.
14 May 10.3 01:39:38 20° NE 01:39:38 20° NE 01:42:03 10° NE visible
14 May 9.9 03:26:54 21° NW 03:26:54 21° NW 03:33:49 10° N visible
15 May 9.9 02:41:12 24° N 02:41:12 24° N 02:46:16 10° NNE visible
16 May 10.3 01:55:26 20° NNE 01:55:26 20° NNE 01:58:21 10° NNE visible
17 May 10.7 01:09:36 12° NNE 01:09:36 12° NNE 01:10:09 10° NNE visible
17 May 10.3 02:56:51 14° NNW 02:56:51 14° NNW 03:00:28 10° N visible
18 May 10.4 02:10:56 15° N 02:10:56 15° N 02:13:28 10° N visible
19 May 10.7 01:24:58 12° NNE 01:24:58 12° NNE 01:25:50 10° NNE visible
